| time (UTC) | temp F | wind direction | speed MPH | gust MPH | rain 1hr in | rain 24hr in | rain mn in | humidity % | barometer mb |
| 20260508212321 | 61 | 214 | 0.0 | 0.0 | 0.00 | 0.00 | 0.00 | 79 | 1016.5 |
| 20260508211816 | 61 | 214 | 0.0 | 0.0 | 0.00 | 0.00 | 0.00 | 78 | 1016.4 |
| 20260508211309 | 61 | 214 | 0.0 | 0.0 | 0.00 | 0.00 | 0.00 | 78 | 1016.4 |
| 20260508210810 | 62 | 214 | 0.0 | 0.0 | 0.00 | 0.00 | 0.00 | 78 | 1016.4 |
| 20260508210309 | 62 | 214 | 0.0 | 1.0 | 0.00 | 0.00 | 0.00 | 78 | 1016.5 |
| 20260508205807 | 62 | 213 | 0.0 | 2.0 | 0.00 | 0.00 | 0.00 | 77 | 1016.4 |
| 20260508205306 | 62 | 213 | 0.0 | 2.0 | 0.00 | 0.00 | 0.00 | 77 | 1016.4 |
| 20260508204802 | 62 | 217 | 0.0 | 2.0 | 0.00 | 0.00 | 0.00 | 77 | 1016.5 |
| 20260508204302 | 62 | 218 | 0.0 | 2.0 | 0.00 | 0.00 | 0.00 | 76 | 1016.5 |
| 20260508203802 | 62 | 218 | 0.0 | 2.0 | 0.00 | 0.00 | 0.00 | 76 | 1016.5 |
| 20260508203302 | 62 | 218 | 0.0 | 1.0 | 0.00 | 0.00 | 0.00 | 75 | 1016.4 |
| 20260508202801 | 63 | 218 | 0.0 | 0.0 | 0.00 | 0.00 | 0.00 | 75 | 1016.4 |
| 20260508201802 | 63 | 209 | 0.0 | 4.0 | 0.00 | 0.00 | 0.00 | 74 | 1016.3 |
| 20260508201301 | 63 | 209 | 0.0 | 4.0 | 0.00 | 0.00 | 0.00 | 73 | 1016.3 |
| 20260508200802 | 63 | 213 | 0.0 | 4.0 | 0.00 | 0.00 | 0.00 | 73 | 1016.3 |
| 20260508200301 | 64 | 215 | 0.0 | 0.0 | 0.00 | 0.00 | 0.00 | 72 | 1016.3 |
| 20260508195305 | 64 | 213 | 0.0 | 1.0 | 0.00 | 0.00 | 0.00 | 70 | 1016.2 |
| 20260508194801 | 64 | 204 | 0.0 | 3.0 | 0.00 | 0.00 | 0.00 | 69 | 1016.1 |
| 20260508194300 | 64 | 207 | 0.0 | 3.0 | 0.00 | 0.00 | 0.00 | 68 | 1016.1 |
| 20260508193754 | 65 | 205 | 0.0 | 0.0 | 0.00 | 0.00 | 0.00 | 67 | 1016.0 |
| 20260508193247 | 65 | 194 | 0.0 | 0.0 | 0.00 | 0.00 | 0.00 | 66 | 1015.9 |
| 20260508192242 | 65 | 194 | 0.0 | 0.0 | 0.00 | 0.00 | 0.00 | 65 | 1015.8 |
| 20260508191742 | 65 | 194 | 0.0 | 0.0 | 0.00 | 0.00 | 0.00 | 64 | 1015.7 |
| 20260508190240 | 66 | 188 | 0.0 | 0.0 | 0.00 | 0.00 | 0.00 | 63 | 1015.5 |
| 20260508185740 | 66 | 188 | 0.0 | 2.0 | 0.00 | 0.00 | 0.00 | 63 | 1015.5 |
| 20260508185237 | 66 | 188 | 0.0 | 2.0 | 0.00 | 0.00 | 0.00 | 63 | 1015.4 |
| 20260508184238 | 67 | 229 | 0.0 | 0.0 | 0.00 | 0.00 | 0.00 | 62 | 1015.3 |
| 20260508183735 | 67 | 232 | 0.0 | 0.0 | 0.00 | 0.00 | 0.00 | 61 | 1015.3 |
| 20260508183236 | 67 | 200 | 0.0 | 1.0 | 0.00 | 0.00 | 0.00 | 60 | 1015.2 |
| 20260508182735 | 67 | 200 | 0.0 | 1.0 | 0.00 | 0.00 | 0.00 | 60 | 1015.1 |
| 20260508182236 | 68 | 202 | 0.0 | 5.0 | 0.00 | 0.00 | 0.00 | 59 | 1015.0 |
| 20260508181736 | 68 | 211 | 0.0 | 5.0 | 0.00 | 0.00 | 0.00 | 58 | 1015.0 |
| 20260508181235 | 68 | 186 | 0.0 | 4.0 | 0.00 | 0.00 | 0.00 | 58 | 1014.9 |
| 20260508175732 | 69 | 195 | 1.0 | 6.0 | 0.00 | 0.00 | 0.00 | 57 | 1014.8 |
| 20260508174732 | 69 | 202 | 1.0 | 7.0 | 0.00 | 0.00 | 0.00 | 56 | 1014.7 |
| 20260508174231 | 69 | 191 | 0.0 | 5.0 | 0.00 | 0.00 | 0.00 | 56 | 1014.7 |
| 20260508173733 | 70 | 193 | 1.0 | 4.0 | 0.00 | 0.00 | 0.00 | 56 | 1014.6 |
| 20260508173230 | 70 | 198 | 1.0 | 4.0 | 0.00 | 0.00 | 0.00 | 55 | 1014.7 |
| 20260508172729 | 70 | 211 | 0.0 | 7.0 | 0.00 | 0.00 | 0.00 | 55 | 1014.7 |
| 20260508172230 | 70 | 157 | 1.0 | 9.0 | 0.00 | 0.00 | 0.00 | 55 | 1014.6 |
| 20260508171728 | 70 | 208 | 1.0 | 9.0 | 0.00 | 0.00 | 0.00 | 55 | 1014.6 |
| 20260508171230 | 70 | 192 | 1.0 | 5.0 | 0.00 | 0.00 | 0.00 | 56 | 1014.6 |
| 20260508170729 | 70 | 220 | 1.0 | 7.0 | 0.00 | 0.00 | 0.00 | 55 | 1014.6 |
| 20260508170229 | 70 | 218 | 3.0 | 9.0 | 0.00 | 0.00 | 0.00 | 55 | 1014.6 |
| 20260508165728 | 70 | 203 | 2.0 | 9.0 | 0.00 | 0.00 | 0.00 | 55 | 1014.6 |
| 20260508164730 | 71 | 186 | 1.0 | 7.0 | 0.00 | 0.00 | 0.00 | 53 | 1014.6 |
| 20260508163717 | 72 | 144 | 0.0 | 5.0 | 0.00 | 0.00 | 0.00 | 51 | 1014.6 |
| 20260508162705 | 72 | 199 | 0.0 | 0.0 | 0.00 | 0.00 | 0.00 | 49 | 1014.5 |
| 20260508162203 | 72 | 165 | 0.0 | 2.0 | 0.00 | 0.00 | 0.00 | 48 | 1014.5 |
| 20260508161703 | 73 | 196 | 0.0 | 2.0 | 0.00 | 0.00 | 0.00 | 48 | 1014.4 |
| 20260508161202 | 73 | 216 | 0.0 | 0.0 | 0.00 | 0.00 | 0.00 | 49 | 1014.4 |
| 20260508160703 | 73 | 170 | 0.0 | 4.0 | 0.00 | 0.00 | 0.00 | 49 | 1014.5 |
| 20260508160204 | 73 | 178 | 0.0 | 5.0 | 0.00 | 0.00 | 0.00 | 49 | 1014.5 |
| 20260508155202 | 73 | 189 | 0.0 | 6.0 | 0.00 | 0.00 | 0.00 | 48 | 1014.4 |
| 20260508154703 | 73 | 178 | 0.0 | 6.0 | 0.00 | 0.00 | 0.00 | 48 | 1014.4 |
| 20260508154202 | 73 | 158 | 1.0 | 6.0 | 0.00 | 0.00 | 0.00 | 49 | 1014.4 |
| 20260508153702 | 73 | 174 | 0.0 | 5.0 | 0.00 | 0.00 | 0.00 | 48 | 1014.4 |
| 20260508153203 | 74 | 196 | 0.0 | 5.0 | 0.00 | 0.00 | 0.00 | 48 | 1014.4 |
| 20260508152702 | 74 | 187 | 0.0 | 5.0 | 0.00 | 0.00 | 0.00 | 48 | 1014.5 |
| 20260508152202 | 74 | 163 | 0.0 | 2.0 | 0.00 | 0.00 | 0.00 | 48 | 1014.5 |
| 20260508151703 | 74 | 138 | 1.0 | 8.0 | 0.00 | 0.00 | 0.00 | 49 | 1014.5 |
| 20260508151203 | 74 | 208 | 1.0 | 8.0 | 0.00 | 0.00 | 0.00 | 47 | 1014.5 |
| 20260508150702 | 75 | 202 | 1.0 | 7.0 | 0.00 | 0.00 | 0.00 | 48 | 1014.5 |
| 20260508150203 | 75 | 180 | 0.0 | 7.0 | 0.00 | 0.00 | 0.00 | 47 | 1014.5 |
| 20260508145701 | 75 | 168 | 1.0 | 7.0 | 0.00 | 0.00 | 0.00 | 47 | 1014.6 |
| 20260508145202 | 75 | 172 | 2.0 | 8.0 | 0.00 | 0.00 | 0.00 | 48 | 1014.6 |
| 20260508144203 | 76 | 199 | 0.0 | 7.0 | 0.00 | 0.00 | 0.00 | 48 | 1014.6 |
| 20260508143703 | 76 | 188 | 1.0 | 8.0 | 0.00 | 0.00 | 0.00 | 48 | 1014.6 |
| 20260508143202 | 76 | 189 | 1.0 | 8.0 | 0.00 | 0.00 | 0.00 | 47 | 1014.6 |
| 20260508142703 | 76 | 259 | 1.0 | 8.0 | 0.00 | 0.00 | 0.00 | 47 | 1014.6 |
| 20260508142203 | 76 | 185 | 1.0 | 7.0 | 0.00 | 0.00 | 0.00 | 47 | 1014.7 |
| 20260508141703 | 76 | 192 | 2.0 | 10.0 | 0.00 | 0.00 | 0.00 | 47 | 1014.7 |
| 20260508141202 | 76 | 156 | 3.0 | 10.0 | 0.00 | 0.00 | 0.00 | 47 | 1014.8 |
| 20260508140702 | 75 | 172 | 2.0 | 7.0 | 0.00 | 0.00 | 0.00 | 47 | 1014.8 |
| 20260508140203 | 75 | 122 | 1.0 | 7.0 | 0.00 | 0.00 | 0.00 | 47 | 1014.8 |
| 20260508135702 | 75 | 180 | 2.0 | 7.0 | 0.00 | 0.00 | 0.00 | 47 | 1014.8 |
| 20260508135203 | 75 | 171 | 2.0 | 9.0 | 0.00 | 0.00 | 0.00 | 47 | 1014.9 |
| 20260508134705 | 75 | 154 | 2.0 | 10.0 | 0.00 | 0.00 | 0.00 | 47 | 1015.0 |
| 20260508134204 | 75 | 179 | 2.0 | 10.0 | 0.00 | 0.00 | 0.00 | 48 | 1015.0 |
| 20260508133702 | 75 | 126 | 2.0 | 9.0 | 0.00 | 0.00 | 0.00 | 49 | 1015.0 |
| 20260508132652 | 75 | 232 | 1.0 | 9.0 | 0.00 | 0.00 | 0.00 | 50 | 1015.1 |
| 20260508132146 | 75 | 155 | 1.0 | 8.0 | 0.00 | 0.00 | 0.00 | 51 | 1015.1 |
| 20260508131640 | 75 | 142 | 1.0 | 7.0 | 0.00 | 0.00 | 0.00 | 52 | 1015.1 |
| 20260508131141 | 75 | 136 | 1.0 | 6.0 | 0.00 | 0.00 | 0.00 | 53 | 1015.1 |
| 20260508130640 | 75 | 169 | 0.0 | 6.0 | 0.00 | 0.00 | 0.00 | 53 | 1015.1 |
| 20260508130140 | 75 | 185 | 1.0 | 6.0 | 0.00 | 0.00 | 0.00 | 54 | 1015.1 |
| 20260508125638 | 75 | 119 | 1.0 | 10.0 | 0.00 | 0.00 | 0.00 | 53 | 1015.1 |
| 20260508125140 | 75 | 126 | 1.0 | 10.0 | 0.00 | 0.00 | 0.00 | 54 | 1015.1 |
| 20260508124639 | 74 | 180 | 0.0 | 7.0 | 0.00 | 0.00 | 0.00 | 52 | 1015.1 |
| 20260508124137 | 74 | 205 | 0.0 | 6.0 | 0.00 | 0.00 | 0.00 | 52 | 1015.2 |
| 20260508123137 | 73 | 94 | 1.0 | 9.0 | 0.00 | 0.00 | 0.00 | 50 | 1015.3 |
| 20260508122634 | 74 | 211 | 2.0 | 9.0 | 0.00 | 0.00 | 0.00 | 52 | 1015.3 |
| 20260508122134 | 73 | 179 | 1.0 | 8.0 | 0.00 | 0.00 | 0.00 | 51 | 1015.4 |
| 20260508121630 | 74 | 167 | 0.0 | 1.0 | 0.00 | 0.00 | 0.00 | 49 | 1015.5 |
| 20260508121131 | 75 | 50 | 0.0 | 1.0 | 0.00 | 0.00 | 0.00 | 47 | 1015.5 |
| 20260508120630 | 75 | 190 | 0.0 | 0.0 | 0.00 | 0.00 | 0.00 | 49 | 1015.5 |
| 20260508120130 | 75 | 201 | 0.0 | 0.0 | 0.00 | 0.00 | 0.00 | 48 | 1015.6 |
| 20260508115131 | 74 | 166 | 0.0 | 5.0 | 0.00 | 0.00 | 0.00 | 51 | 1015.6 |
| 20260508114631 | 74 | 274 | 0.0 | 4.0 | 0.00 | 0.00 | 0.00 | 50 | 1015.6 |
| 20260508114126 | 73 | 155 | 0.0 | 3.0 | 0.00 | 0.00 | 0.00 | 51 | 1015.6 |
| 20260508113116 | 72 | 148 | 0.0 | 7.0 | 0.00 | 0.00 | 0.00 | 56 | 1015.5 |
| 20260508112610 | 71 | 109 | 1.0 | 0.0 | 0.00 | 0.00 | 0.00 | 55 | 1015.6 |
| 20260508112109 | 71 | 321 | 1.0 | 0.0 | 0.00 | 0.00 | 0.00 | 55 | 1015.6 |
| 20260508111712 | 71 | 84 | 1.0 | 10.0 | 0.00 | 0.00 | 0.00 | 56 | 1015.7 |
| 20260508110713 | 72 | 327 | 0.0 | 5.0 | 0.00 | 0.00 | 0.00 | 59 | 1015.8 |
| 20260508110211 | 71 | 201 | 1.0 | 8.0 | 0.00 | 0.00 | 0.00 | 59 | 1015.8 |
| 20260508105710 | 72 | 79 | 1.0 | 8.0 | 0.00 | 0.00 | 0.00 | 59 | 1015.9 |
| 20260508105211 | 72 | 140 | 0.0 | 2.0 | 0.00 | 0.00 | 0.00 | 59 | 1015.9 |
| 20260508104711 | 72 | 157 | 0.0 | 2.0 | 0.00 | 0.00 | 0.00 | 60 | 1016.0 |
| 20260508104211 | 73 | 86 | 0.0 | 5.0 | 0.00 | 0.00 | 0.00 | 59 | 1016.0 |
| 20260508103711 | 73 | 117 | 1.0 | 7.0 | 0.00 | 0.00 | 0.00 | 59 | 1016.0 |
| 20260508103213 | 72 | 77 | 0.0 | 7.0 | 0.00 | 0.00 | 0.00 | 57 | 1016.1 |
| 20260508102711 | 72 | 148 | 0.0 | 7.0 | 0.00 | 0.00 | 0.00 | 56 | 1016.1 |
| 20260508102211 | 72 | 133 | 1.0 | 8.0 | 0.00 | 0.00 | 0.00 | 58 | 1016.2 |
| 20260508101214 | 71 | 179 | 1.0 | 8.0 | 0.00 | 0.00 | 0.00 | 59 | 1016.3 |
| 20260508100711 | 71 | 115 | 0.0 | 8.0 | 0.00 | 0.00 | 0.00 | 60 | 1016.3 |
| 20260508100211 | 70 | 274 | 0.0 | 4.0 | 0.00 | 0.00 | 0.00 | 58 | 1016.3 |
| 20260508095213 | 70 | 185 | 1.0 | 10.0 | 0.00 | 0.00 | 0.00 | 62 | 1016.3 |
| 20260508094703 | 69 | 124 | 1.0 | 10.0 | 0.00 | 0.00 | 0.00 | 61 | 1016.4 |
| 20260508094202 | 69 | 125 | 0.0 | 2.0 | 0.00 | 0.00 | 0.00 | 63 | 1016.4 |
| 20260508093701 | 69 | 180 | 0.0 | 7.0 | 0.00 | 0.00 | 0.00 | 62 | 1016.4 |
| 20260508093202 | 69 | 136 | 0.0 | 7.0 | 0.00 | 0.00 | 0.00 | 62 | 1016.5 |
| 20260508092203 | 69 | 64 | 1.0 | 8.0 | 0.00 | 0.00 | 0.00 | 65 | 1016.5 |
| 20260508091702 | 68 | 168 | 1.0 | 8.0 | 0.00 | 0.00 | 0.00 | 67 | 1016.5 |
| 20260508090701 | 67 | 92 | 1.0 | 7.0 | 0.00 | 0.00 | 0.00 | 68 | 1016.5 |
| 20260508090201 | 67 | 61 | 1.0 | 9.0 | 0.00 | 0.00 | 0.00 | 70 | 1016.5 |
| 20260508085700 | 67 | 105 | 1.0 | 9.0 | 0.00 | 0.00 | 0.00 | 70 | 1016.5 |
| 20260508085201 | 67 | 118 | 0.0 | 8.0 | 0.00 | 0.00 | 0.00 | 70 | 1016.5 |
| 20260508084701 | 66 | 118 | 0.0 | 8.0 | 0.00 | 0.00 | 0.00 | 72 | 1016.5 |
| 20260508084201 | 66 | 87 | 0.0 | 4.0 | 0.00 | 0.00 | 0.00 | 73 | 1016.5 |
| 20260508083700 | 66 | 44 | 0.0 | 7.0 | 0.00 | 0.00 | 0.00 | 75 | 1016.4 |
| 20260508083153 | 65 | 128 | 0.0 | 7.0 | 0.00 | 0.00 | 0.00 | 75 | 1016.5 |
| 20260508082647 | 65 | 86 | 0.0 | 6.0 | 0.00 | 0.00 | 0.00 | 74 | 1016.5 |
| 20260508082143 | 65 | 94 | 1.0 | 7.0 | 0.00 | 0.00 | 0.00 | 75 | 1016.5 |
| 20260508081130 | 65 | 90 | 0.0 | 6.0 | 0.00 | 0.00 | 0.00 | 76 | 1016.5 |
| 20260508080624 | 65 | 65 | 0.0 | 6.0 | 0.00 | 0.00 | 0.00 | 76 | 1016.5 |
| 20260508080118 | 65 | 103 | 1.0 | 7.0 | 0.00 | 0.00 | 0.00 | 77 | 1016.4 |
| 20260508075112 | 64 | 22 | 1.0 | 6.0 | 0.00 | 0.00 | 0.00 | 78 | 1016.4 |
| 20260508074610 | 64 | 80 | 2.0 | 8.0 | 0.00 | 0.00 | 0.00 | 79 | 1016.4 |
| 20260508074108 | 64 | 62 | 3.0 | 8.0 | 0.00 | 0.00 | 0.00 | 78 | 1016.4 |
| 20260508073607 | 64 | 133 | 3.0 | 7.0 | 0.00 | 0.00 | 0.00 | 80 | 1016.3 |
| 20260508073108 | 64 | 67 | 2.0 | 7.0 | 0.00 | 0.00 | 0.00 | 80 | 1016.3 |
| 20260508072606 | 63 | 132 | 2.0 | 7.0 | 0.00 | 0.00 | 0.00 | 82 | 1016.3 |
| 20260508072105 | 63 | 132 | 3.0 | 8.0 | 0.00 | 0.00 | 0.00 | 82 | 1016.3 |
| 20260508071605 | 62 | 83 | 3.0 | 8.0 | 0.00 | 0.00 | 0.00 | 83 | 1016.3 |
| 20260508071105 | 62 | 138 | 3.0 | 8.0 | 0.00 | 0.00 | 0.00 | 83 | 1016.3 |
| 20260508070603 | 62 | 88 | 4.0 | 8.0 | 0.00 | 0.00 | 0.00 | 83 | 1016.3 |
| 20260508065603 | 62 | 78 | 2.0 | 10.0 | 0.00 | 0.00 | 0.00 | 85 | 1016.3 |
| 20260508065102 | 61 | 74 | 2.0 | 6.0 | 0.00 | 0.00 | 0.00 | 86 | 1016.3 |
| 20260508064604 | 60 | 33 | 3.0 | 9.0 | 0.00 | 0.00 | 0.00 | 86 | 1016.3 |
| 20260508063603 | 60 | 90 | 3.0 | 8.0 | 0.00 | 0.00 | 0.00 | 86 | 1016.2 |
| 20260508063103 | 60 | 82 | 3.0 | 8.0 | 0.00 | 0.00 | 0.00 | 86 | 1016.2 |
| 20260508062101 | 59 | 82 | 3.0 | 6.0 | 0.00 | 0.00 | 0.00 | 87 | 1016.1 |
| 20260508061555 | 59 | 84 | 3.0 | 6.0 | 0.00 | 0.00 | 0.00 | 87 | 1016.0 |
| 20260508061049 | 58 | 117 | 3.0 | 7.0 | 0.00 | 0.00 | 0.00 | 87 | 1016.0 |
| 20260508060544 | 58 | 90 | 2.0 | 7.0 | 0.00 | 0.00 | 0.00 | 87 | 1015.9 |
| 20260508055536 | 58 | 14 | 2.0 | 4.0 | 0.00 | 0.00 | 0.00 | 87 | 1015.9 |
| 20260508055036 | 58 | 21 | 1.0 | 4.0 | 0.00 | 0.00 | 0.00 | 87 | 1015.8 |
| 20260508054534 | 57 | 71 | 1.0 | 4.0 | 0.00 | 0.00 | 0.00 | 87 | 1015.9 |
| 20260508054032 | 57 | 46 | 2.0 | 4.0 | 0.00 | 0.00 | 0.00 | 87 | 1015.8 |
| 20260508053532 | 57 | 74 | 2.0 | 6.0 | 0.00 | 0.00 | 0.00 | 87 | 1015.8 |
| 20260508052532 | 57 | 58 | 2.0 | 4.0 | 0.00 | 0.00 | 0.00 | 88 | 1015.7 |
| 20260508051531 | 56 | 33 | 2.0 | 5.0 | 0.00 | 0.00 | 0.00 | 88 | 1015.7 |
| 20260508050529 | 55 | 12 | 2.0 | 6.0 | 0.00 | 0.00 | 0.00 | 88 | 1015.6 |
| 20260508050029 | 55 | 11 | 2.0 | 6.0 | 0.00 | 0.00 | 0.00 | 88 | 1015.6 |
| 20260508045529 | 55 | 15 | 1.0 | 5.0 | 0.00 | 0.00 | 0.00 | 88 | 1015.6 |
| 20260508044526 | 55 | 5 | 2.0 | 4.0 | 0.00 | 0.00 | 0.00 | 88 | 1015.5 |
| 20260508044025 | 54 | 39 | 1.0 | 4.0 | 0.00 | 0.00 | 0.00 | 88 | 1015.4 |
| 20260508043526 | 54 | 9 | 2.0 | 3.0 | 0.00 | 0.00 | 0.00 | 88 | 1015.4 |
| 20260508043023 | 54 | 5 | 2.0 | 4.0 | 0.00 | 0.00 | 0.00 | 88 | 1015.3 |
| 20260508042523 | 54 | 0 | 1.0 | 4.0 | 0.00 | 0.00 | 0.00 | 88 | 1015.3 |
| 20260508042023 | 54 | 28 | 0.0 | 2.0 | 0.00 | 0.00 | 0.00 | 88 | 1015.3 |
| 20260508041522 | 54 | 29 | 0.0 | 3.0 | 0.00 | 0.00 | 0.00 | 88 | 1015.3 |
| 20260508041021 | 54 | 30 | 1.0 | 5.0 | 0.00 | 0.00 | 0.00 | 88 | 1015.2 |
| 20260508040522 | 54 | 5 | 2.0 | 5.0 | 0.00 | 0.00 | 0.00 | 88 | 1015.2 |
| 20260508035522 | 54 | 22 | 3.0 | 8.0 | 0.00 | 0.00 | 0.00 | 88 | 1015.1 |
| 20260508035022 | 53 | 9 | 3.0 | 8.0 | 0.00 | 0.00 | 0.00 | 88 | 1015.2 |
| 20260508034521 | 53 | 33 | 3.0 | 6.0 | 0.00 | 0.00 | 0.00 | 88 | 1015.1 |
| 20260508033520 | 54 | 35 | 3.0 | 8.0 | 0.00 | 0.00 | 0.00 | 88 | 1015.1 |
| 20260508033021 | 54 | 27 | 3.0 | 7.0 | 0.00 | 0.00 | 0.00 | 88 | 1015.1 |
| 20260508032521 | 54 | 30 | 3.0 | 7.0 | 0.00 | 0.00 | 0.00 | 88 | 1015.2 |
| 20260508032015 | 54 | 38 | 3.0 | 7.0 | 0.00 | 0.00 | 0.00 | 88 | 1015.3 |
| 20260508031517 | 54 | 30 | 2.0 | 5.0 | 0.00 | 0.00 | 0.00 | 88 | 1015.2 |
| 20260508031011 | 54 | 34 | 2.0 | 6.0 | 0.00 | 0.00 | 0.00 | 88 | 1015.2 |
| 20260508030511 | 54 | 355 | 3.0 | 6.0 | 0.00 | 0.00 | 0.00 | 88 | 1015.2 |
| 20260508025511 | 55 | 57 | 3.0 | 7.0 | 0.00 | 0.00 | 0.00 | 88 | 1015.3 |
| 20260508025012 | 55 | 26 | 3.0 | 7.0 | 0.00 | 0.00 | 0.00 | 88 | 1015.3 |
| 20260508024511 | 55 | 20 | 2.0 | 5.0 | 0.00 | 0.00 | 0.00 | 89 | 1015.3 |
| 20260508024011 | 55 | 26 | 1.0 | 3.0 | 0.00 | 0.00 | 0.00 | 89 | 1015.3 |
| 20260508023511 | 55 | 55 | 0.0 | 3.0 | 0.00 | 0.00 | 0.00 | 89 | 1015.3 |
| 20260508023011 | 55 | 27 | 0.0 | 3.0 | 0.00 | 0.00 | 0.00 | 89 | 1015.4 |
| 20260508022511 | 56 | 24 | 1.0 | 5.0 | 0.00 | 0.00 | 0.00 | 89 | 1015.4 |
| 20260508022011 | 56 | 13 | 2.0 | 5.0 | 0.00 | 0.00 | 0.00 | 89 | 1015.4 |
| 20260508021012 | 56 | 16 | 1.0 | 4.0 | 0.00 | 0.00 | 0.00 | 88 | 1015.3 |
| 20260508020510 | 56 | 26 | 2.0 | 5.0 | 0.00 | 0.00 | 0.00 | 89 | 1015.4 |
| 20260508020011 | 56 | 13 | 2.0 | 5.0 | 0.00 | 0.00 | 0.00 | 89 | 1015.4 |
| 20260508015512 | 56 | 42 | 2.0 | 5.0 | 0.00 | 0.00 | 0.00 | 88 | 1015.4 |
| 20260508015010 | 56 | 65 | 2.0 | 5.0 | 0.00 | 0.00 | 0.00 | 88 | 1015.4 |
| 20260508014007 | 57 | 30 | 3.0 | 6.0 | 0.00 | 0.00 | 0.00 | 88 | 1015.4 |
| 20260508013506 | 57 | 80 | 2.0 | 6.0 | 0.00 | 0.00 | 0.00 | 88 | 1015.4 |
| 20260508013007 | 57 | 18 | 0.0 | 3.0 | 0.00 | 0.00 | 0.00 | 88 | 1015.4 |
| 20260508012504 | 58 | 18 | 0.0 | 4.0 | 0.00 | 0.00 | 0.00 | 88 | 1015.4 |
| 20260508011503 | 58 | 38 | 0.0 | 4.0 | 0.00 | 0.00 | 0.00 | 88 | 1015.4 |
| 20260508011002 | 58 | 45 | 0.0 | 5.0 | 0.00 | 0.00 | 0.00 | 88 | 1015.4 |
| 20260508010503 | 58 | 46 | 0.0 | 8.0 | 0.00 | 0.00 | 0.00 | 87 | 1015.4 |
| 20260508005500 | 58 | 14 | 0.0 | 4.0 | 0.00 | 0.00 | 0.00 | 87 | 1015.5 |
| 20260508005000 | 58 | 92 | 0.0 | 4.0 | 0.00 | 0.00 | 0.00 | 87 | 1015.4 |
| 20260508004501 | 58 | 63 | 0.0 | 4.0 | 0.00 | 0.00 | 0.00 | 87 | 1015.4 |
| 20260508003501 | 58 | 86 | 2.0 | 8.0 | 0.00 | 0.00 | 0.00 | 86 | 1015.4 |
| 20260508002958 | 58 | 138 | 1.0 | 8.0 | 0.00 | 0.00 | 0.00 | 86 | 1015.4 |
| 20260508001955 | 58 | 28 | 1.0 | 5.0 | 0.00 | 0.00 | 0.00 | 86 | 1015.4 |
| 20260508001450 | 58 | 17 | 2.0 | 5.0 | 0.00 | 0.00 | 0.00 | 86 | 1015.5 |
| 20260508000949 | 58 | 88 | 1.0 | 0.0 | 0.00 | 0.00 | 0.00 | 86 | 1015.5 |
| 20260508000530 | 58 | 30 | 0.0 | 0.0 | 0.00 | 0.00 | 0.00 | 85 | 1015.4 |
| 20260508000030 | 58 | 68 | 0.0 | 1.0 | 0.00 | 0.00 | 0.00 | 85 | 1015.5 |
| 20260507235530 | 58 | 20 | 1.0 | 5.0 | 0.00 | 0.00 | 0.00 | 85 | 1015.5 |
| 20260507235032 | 58 | 18 | 1.0 | 5.0 | 0.00 | 0.00 | 0.00 | 85 | 1015.6 |
| 20260507234031 | 58 | 28 | 3.0 | 8.0 | 0.00 | 0.00 | 0.00 | 84 | 1015.6 |
| 20260507233533 | 58 | 65 | 4.0 | 8.0 | 0.00 | 0.00 | 0.00 | 84 | 1015.6 |
| 20260507233031 | 58 | 22 | 4.0 | 7.0 | 0.00 | 0.00 | 0.00 | 84 | 1015.6 |
| 20260507232530 | 58 | 29 | 4.0 | 8.0 | 0.00 | 0.00 | 0.00 | 84 | 1015.7 |
| 20260507232031 | 58 | 0 | 4.0 | 8.0 | 0.00 | 0.00 | 0.00 | 84 | 1015.7 |
| 20260507231530 | 58 | 34 | 3.0 | 6.0 | 0.00 | 0.00 | 0.00 | 84 | 1015.6 |
| 20260507230531 | 58 | 5 | 2.0 | 6.0 | 0.00 | 0.00 | 0.00 | 84 | 1015.5 |
| 20260507230032 | 58 | 29 | 1.0 | 4.0 | 0.00 | 0.00 | 0.00 | 84 | 1015.4 |
| 20260507225532 | 58 | 54 | 1.0 | 4.0 | 0.00 | 0.00 | 0.00 | 84 | 1015.4 |
| 20260507225026 | 58 | 40 | 0.0 | 4.0 | 0.00 | 0.00 | 0.00 | 84 | 1015.5 |
| 20260507224526 | 58 | 87 | 0.0 | 0.0 | 0.00 | 0.00 | 0.00 | 84 | 1015.5 |
| 20260507224021 | 58 | 46 | 0.0 | 0.0 | 0.00 | 0.00 | 0.00 | 84 | 1015.5 |
| 20260507223514 | 58 | 38 | 0.0 | 0.0 | 0.00 | 0.00 | 0.00 | 84 | 1015.6 |
| 20260507222511 | 58 | 32 | 0.0 | 0.0 | 0.00 | 0.00 | 0.00 | 83 | 1015.5 |
| 20260507221507 | 59 | 36 | 0.0 | 0.0 | 0.00 | 0.00 | 0.00 | 83 | 1015.4 |
| 20260507221006 | 59 | 36 | 0.0 | 0.0 | 0.00 | 0.00 | 0.00 | 82 | 1015.4 |
| 20260507220507 | 59 | 33 | 0.0 | 0.0 | 0.00 | 0.00 | 0.00 | 82 | 1015.3 |
| 20260507220005 | 59 | 61 | 0.0 | 0.0 | 0.00 | 0.00 | 0.00 | 82 | 1015.3 |
| 20260507215003 | 59 | 65 | 0.0 | 0.0 | 0.00 | 0.00 | 0.00 | 81 | 1015.4 |
| 20260507214503 | 59 | 98 | 0.0 | 1.0 | 0.00 | 0.00 | 0.00 | 81 | 1015.4 |
| 20260507214002 | 59 | 98 | 0.0 | 1.0 | 0.00 | 0.00 | 0.00 | 80 | 1015.2 |
| 20260507213003 | 60 | 33 | 1.0 | 4.0 | 0.00 | 0.00 | 0.00 | 79 | 1015.1 |